Powrót do katalogu

BLOCK DM-SL R/B

AktywnyGTO
NORAD 26725·ROCKET BODY· XX

Wystrzelony Mar 18, 2001 z Sea Launch Platform

Loading…

TLE

Starzejące sięSource: Space-Track

Epoka: Sep 14, 2026, 22:30 UTC

1 26725U 01012B   26257.93777414 -.00000147  00000-0  32370-2 0  9990
2 26725   1.3093 335.4144 7051547 197.5705 219.7824  2.23581182208349

Śledź BLOCK DM-SL R/B w czasie rzeczywistym z AllMySat

Download on the App Store